Regional Weather Roundup
Issued by NWS

Home | Current Version | Previous Version | Text Only | Print | Product List | Glossary On
Versions: 1 2 3 4 5 6 7 8 9 10 11 12 13 14 15 16 17 18 19 20 21 22 23 24 25 26 27 28 29 30 31 32 33 34 35 36 37 38 39 40 41 42 43 44 45 46 47 48 49 50
000
ASUS44 KLUB 281610
RWRTX
WEST TEXAS WEATHER ROUNDUP
NATIONAL WEATHER SERVICE LUBBOCK TX
1100 AM CDT FRI APR 28 2017

NOTE: "FAIR" INDICATES FEW OR NO CLOUDS BELOW 12,000 FEET WITH NO
SIGNIFICANT WEATHER AND/OR OBSTRUCTIONS TO VISIBILITY.

TXZ004-006>008-010-012-014-016-OKZ002-281700-
TEXAS PANHANDLE/OKLAHOMA PANHANDLE

CITY           SKY/WX    TMP DP  RH WIND       PRES   REMARKS
AMARILLO       MOSUNNY   63  43  48 NE6       29.67F
BORGER         SUNNY     59  42  53 CALM      29.67F
CANADIAN       SUNNY     62  47  57 NE6       29.67F
DALHART        MOSUNNY   61  37  41 VRB3      29.66F
DUMAS          SUNNY     58  40  51 CALM      29.67F
GUYMON         SUNNY     62  40  44 N6        29.66S
HEREFORD       MOSUNNY   64  44  49 SE13      29.67F
PAMPA          SUNNY     60  45  56 CALM      29.68F
PERRYTON       SUNNY     60  44  55 N7        29.67R
$$

TXZ026-029-035-045-048-281700-
SOUTHERN PANHANDLE/SOUTH PLAINS/ROLLING PLAINS

CITY           SKY/WX    TMP DP  RH WIND       PRES   REMARKS
CHILDRESS      CLOUDY    70  51  51 N6        29.66S
SEMINOLE       SUNNY     71  35  26 E12       29.71F
LUBBOCK        CLOUDY    70  46  42 SE10      29.67F
PLAINVIEW      CLOUDY    63  44  49 E7        29.67F
SNYDER         MOSUNNY  N/A N/A N/A NE9       29.68S
$$

TXZ052-054-060>062-072-078-127-140-154-169-281700-
PERMIAN BASIN/CONCHO VALLEY/BIG COUNTRY/EDWARDS PLATEAU

CITY           SKY/WX    TMP DP  RH WIND       PRES   REMARKS
ABILENE        PTSUNNY   67  53  61 NW6       29.66S
BIG SPRING     MOSUNNY   73  47  39 E12       29.70S
BROWNWOOD      CLOUDY    81  66  61 W10       29.63S
JUNCTION       SUNNY     80  66  62 S9        29.64F
MIDLAND        SUNNY     75  41  29 E10       29.69S
ODESSA         SUNNY     75  39  27 E9        29.71S
SAN ANGELO     MOSUNNY   80  62  54 W12       29.63S
SONORA         MOSUNNY   77  66  69 S7        29.70S
SWEETWATER     MOSUNNY   72  51  48 NE9       29.70S
WINK           SUNNY     76  33  21 SE6       29.67F
$$

TXZ055-058-074-075-080-082-281700-
FAR WEST/SOUTHWEST MOUNTAINS/TRANS PECOS

CITY           SKY/WX    TMP DP  RH WIND       PRES   REMARKS
ALPINE         MOSUNNY   78  35  20 SW15G21   29.84F
DRYDEN           N/A     75  64  68 CALM      29.65F
EL PASO        PTSUNNY   72  35  25 W24G32    29.73F
FORT STOCKTON  SUNNY     80  40  23 N12       29.70S
GUADALUPE PASS CLOUDY    69  35  28 SW47G56   29.74F
MARFA          CLOUDY    77  36  22 W16       29.83F
PECOS          SUNNY     76  37  24 NE5       29.68F
PRESIDIO       FAIR      80  37  21 CALM      29.74S
$$

TXZ014-016-019-021>030-083-281700
TEXAS TECH WEST TEXAS MESONET/TEXAS PANHANDLE/NORTHERN SOUTH PLAINS

CITY           SKY/WX    TMP DP  RH WIND       PRES   REMARKS
ABERNATHY 5ENE   N/A     67  46  47 SE9       29.68F
AMARILLO 9NNE    N/A     60  41  49 CALM      29.66F
AMARILLO 7SSE    N/A     62  39  42 NE3       29.67F
AMHERST 1NE      N/A     62  42  47 E5        29.69S
BOOTLEG 11WNW    N/A     62  32  32 SE5       29.71R
CANADIAN 6E      N/A     62  44  51 N5        29.64F
CAPROCK CYN SP   N/A     64  46  53 NE3       29.68S
CHILDRESS 2NNE   N/A     70  52  52 N5        29.65S
CLARENDON 2WSW   N/A     65  43  46 W1        29.67S
CLAUDE 12SW      N/A     64  42  45 N3        29.66F
DIMMITT 2NE      N/A     62  45  53 SE9       29.68F
FLOYDADA 2NNE    N/A     68  38  32 E9        29.67F
FRIONA 2NE       N/A     63  43  47 SE7       29.69F
GOODLETT 3W      N/A     72  49  45 N6        29.63F
HART 3N          N/A     63  43  49 E9        29.69S
HEREFORD 2NW     N/A     61  42  50 SE7       29.68S
MCLEAN 1E        N/A     63  44  50 N7        29.66R
MEMPHIS 1NE      N/A     65  50  57 NE3       29.67R
MULESHOE 2SSW    N/A     65  34  30 E5        29.67F
OLTON 6S         N/A     62  45  55 E7        29.68F
PALO DURO SP     N/A     64  40  41 CALM      29.67F
PAMPA 2E         N/A     60  46  59 NW5       29.67F
PLAINVIEW 1S     N/A     63  46  52 E7        29.68S
SILVERTON 7ESE   N/A     63  43  48 E5        29.68F
TULIA 2ENE       N/A     62  45  53 E7        29.68S
TURKEY 2WSW      N/A     65  49  54 N5        29.66F
UMBARGER 3NNE    N/A     62  41  45 E5        29.67F
$$

TXZ033>036-039>041-045>048-281700
TEXAS TECH WEST TEXAS MESONET/SOUTH PLAINS

CITY           SKY/WX    TMP DP  RH WIND       PRES   REMARKS
AIKEN 3WSW       N/A     67  40  37 E9        29.69F
ANDREWS 2NE      N/A     73  33  22 E8        29.71F
ANTON 6SSW       N/A     67  40  37 E9        29.68S
BROWNFIELD 2S    N/A     72  43  34 SE12      29.68F
DENVR CTY 7WNW   N/A     69  31  24 E10       29.71R
GAIL 2ESE        N/A     74  47  38 E6        29.66F
LAMESA 2SE       N/A     74  41  29 E9        29.69F
LEVELLAND 4S     N/A     67  35  30 E9        29.69S
LUBBOCK 3WNW     N/A     70  44  39 E9        29.68S
MORTON 1ENE      N/A     65  34  31 E5        29.69S
ODONNELL 1N      N/A     70  40  32 E10       29.69S
PLAINS 3N        N/A     68  33  27 SE9       29.71R
RALLS 1SE        N/A     70  41  34 E10       29.68F
REESE CENTER     N/A     66  42  41 E9        29.68S
SEAGRAVES 1SW    N/A     72  34  24 SE9       29.70F
SEMINOLE 2NNE    N/A     72  32  23 SE10      29.70F
SLATON 2NE       N/A     71  45  40 E9        29.67F
SNYDER 3E        N/A     73  49  43 NE8       29.68R
SUNDOWN 8SW      N/A     71  35  26 SE8       29.69S
TAHOKA 3NNE      N/A     72  44  37 SE13      29.68S
WOLFFORTH 6SSW   N/A     71  42  34 SE9       29.69R
$$

TXZ031-032-036>038-042>044-281700-
TEXAS TECH WEST TEXAS MESONET/ROLLING PLAINS

CITY           SKY/WX    TMP DP  RH WIND       PRES   REMARKS
ASPERMONT 3NE    N/A     76  49  38 NE6       29.64F
FLUVANNA 3WNW    N/A     71  46  40 NE9       29.67F
GRAHAM 5SSW      N/A     69  47  46 E8        29.68F
GUTHRIE 10WSW    N/A     72  49  43 N8        29.64S
HASKELL 1NW      N/A     71  49  46 N6        29.64R
JAYTON 1SSE      N/A     73  48  40 NE7       29.65S
KNOX CITY 3NW    N/A     74  47  38 NE7       29.64S
LK A HENRY 1NW   N/A     73  46  37 NE8       29.66F
NORTHFIELD 1S    N/A     70  51  50 N5        29.65F
ODELL 4ENE       N/A     74  58  57 NW9       29.63R
PADUCAH 10SW     N/A     72  49  45 NE8       29.64F
POST 1NE         N/A     71  47  43 E8        29.67F
RRING SPRGS 3N   N/A     69  48  46 E10       29.66F
SEYMOUR 3NW      N/A     71  54  54 N5        29.63S
SPUR 1W          N/A     73  43  33 NE6       29.65S
WEINERT 2NNE     N/A     72  53  51 NE5       29.64S
WHITE RVR 6NE    N/A     73  42  32 E7        29.66F
$$

TXZ052-054-060>062-072-078-127-140-154-169-281700-
TEXAS TECH WEST TEXAS MESONET/PERMIAN BASIN/
CONCHO VALLEY/BIG COUNTRY/EDWARDS PLATEAU

CITY           SKY/WX    TMP DP  RH WIND       PRES   REMARKS
COYANOSA 2N      N/A     79  37  22 NE7       29.69S
JUNCTION 1SSW    N/A     80  66  63 SW6       29.65S
MERTZON 3NNE     N/A     80  62  54 W8        29.66S
SAN ANGELO 7NW   N/A     77  63  62 W6        29.64F
STRLNG CT 4WSW   N/A     74  50  42 N6        29.68S
ST LAWRNCE 5SW   N/A     76  46  35 NE7       29.68S
SWEETWATR 11SW   N/A     73  53  48 NE10      29.69S
WALL 1E          N/A     81  63  54 W10       29.64S
$$

TXZ055-058-074-075-080-082-281700-
TEXAS TECH WEST TEXAS MESONET/FAR WEST/SOUTHWEST MOUNTAINS/TRANS PECOS

CITY           SKY/WX    TMP DP  RH WIND       PRES   REMARKS
PRSMN GAP BBNP   N/A     83  36  18 SW5       29.71S
GUADLPE MTN NP   N/A     66  32  28 W30       29.75F
$$



USA.gov is the U.S. government's official web portal to all federal, state and local government web resources and services.